ハートレー-アイラス彗星

161P/Hartley-IRAS (1984)

English version
Home page
Updated on November 6, 2004

---------------------------------------------------------------------

・ プロフィール

符号 161P/1983 V1
発見日 1983年11月4日、10日
発見光度 15等、15.5等
発見者 M. Hartley (U.K. Schmidt Telescope Unit), Infrared Astronomy Satellite (IRAS)

・ 写真集

・ 軌道要素

Epoch 1984 Jan. 21.0 TT = JDT 2445720.5
T 1984 Jan. 8.70483 TT                                  MPC
q   1.2824198            (2000.0)            P               Q
n   0.04597029     Peri.   47.11139     +0.68225851     -0.73064597
a   7.7176404      Node     1.50153     -0.34072299     -0.34930613
e   0.8338327      Incl.   95.73060     +0.64686256     +0.58663591
P  21.44

・ 光度変化

        m1 =  7.5 + 5 logΔ + 18.5 log r  [  , 0]  (              〜1984年 1月 8日)
        m1 = 16   + 5 logΔ - 60   log r  [ 0,50]  (1984年 1月 8日〜1984年 2月27日)
        m1 =  4.2 + 5 logΔ + 18.5 log r  [50,  ]  (1984年 2月27日〜              )

        ※ 灰色の曲線は、m1 = 7.5 + 5 logΔ + 18.5 log r の光度曲線です。

---------------------------------------------------------------------

軌道要素はM.P.E.C. 2004-V25に掲載されたものです。
光度グラフはComet for Windowsで作成したものです。

---------------------------------------------------------------------

Copyright(C) Seiichi Yoshida (comet@aerith.net). All rights reserved.